TimeMST,TemperatureF,Dew PointF,Humidity,Sea Level PressureIn,VisibilityMPH,Wind Direction,Wind SpeedMPH,Gust SpeedMPH,PrecipitationIn,Events,Conditions,WindDirDegrees,DateUTC
12:54 AM,35.1,-2.9,20,30.06,10.0,West,9.2,-,N/A,,Clear,270,2013-01-24 07:54:00
1:54 AM,32.0,-0.9,24,30.06,10.0,West,8.1,-,N/A,,Clear,280,2013-01-24 08:54:00
2:54 AM,32.0,-0.9,24,30.06,10.0,WNW,10.4,-,N/A,,Clear,300,2013-01-24 09:54:00
3:54 AM,30.9,-2.0,24,30.04,10.0,WSW,8.1,-,N/A,,Clear,240,2013-01-24 10:54:00
4:54 AM,28.9,-2.9,25,30.05,10.0,SW,8.1,-,N/A,,Clear,230,2013-01-24 11:54:00
5:54 AM,28.0,-2.9,26,30.07,10.0,WNW,9.2,-,N/A,,Clear,300,2013-01-24 12:54:00
6:54 AM,33.1,-2.0,22,30.12,10.0,West,11.5,-,N/A,,Clear,260,2013-01-24 13:54:00
7:54 AM,34.0,-2.0,22,30.10,10.0,WNW,10.4,-,N/A,,Clear,300,2013-01-24 14:54:00
8:54 AM,46.0,-2.0,14,30.04,10.0,WNW,5.8,-,N/A,,Clear,300,2013-01-24 15:54:00
9:54 AM,63.0,-2.0,7,30.00,10.0,WSW,18.4,-,N/A,,Clear,250,2013-01-24 16:54:00
10:54 AM,57.9,-4.0,8,30.00,10.0,North,4.6,-,N/A,,Clear,360,2013-01-24 17:54:00
11:54 AM,55.0,1.0,11,30.00,10.0,Calm,Calm,-,N/A,,Clear,0,2013-01-24 18:54:00
12:54 PM,64.9,-4.0,6,29.93,10.0,South,6.9,-,N/A,,Clear,190,2013-01-24 19:54:00
1:54 PM,64.0,-0.9,7,29.92,10.0,SSE,13.8,-,N/A,,Clear,150,2013-01-24 20:54:00
2:54 PM,66.0,-2.9,6,29.90,10.0,ESE,5.8,-,N/A,,Clear,110,2013-01-24 21:54:00
3:54 PM,66.9,-2.0,6,29.89,10.0,NNE,6.9,-,N/A,,Clear,20,2013-01-24 22:54:00
4:54 PM,59.0,10.0,14,29.93,10.0,NNW,8.1,-,N/A,,Clear,330,2013-01-24 23:54:00
5:54 PM,52.0,12.0,20,29.99,10.0,WNW,10.4,-,N/A,,Clear,300,2013-01-25 00:54:00
6:54 PM,51.1,12.0,21,29.98,10.0,NW,9.2,-,N/A,,Clear,320,2013-01-25 01:54:00
7:54 PM,43.0,10.9,27,30.03,10.0,NW,6.9,-,N/A,,Clear,320,2013-01-25 02:54:00
8:54 PM,41.0,7.0,25,30.04,10.0,West,8.1,-,N/A,,Clear,280,2013-01-25 03:54:00
9:54 PM,37.9,10.0,32,29.99,10.0,WSW,8.1,-,N/A,,Partly Cloudy,250,2013-01-25 04:54:00
10:54 PM,39.0,16.0,39,30.03,10.0,West,9.2,-,N/A,,Clear,280,2013-01-25 05:54:00
11:54 PM,43.0,18.0,37,30.03,10.0,WNW,12.7,-,N/A,,Clear,290,2013-01-25 06:54:00